Raleigh, NC

9:42 PM EDT on September 30, 2016 (GMT -0400)
Raleigh-Durham International

Weather History for KRDU - October, 2014

Change the Weather History Date:

Friday, October 24, 2014

  Actual Average Record
Temperature  
Mean Temperature 57 °F 59 °F  
Max Temperature 70 °F 71 °F 87 °F (2001)
Min Temperature 43 °F 47 °F 26 °F (1969)
Degree Days  
Heating Degree Days 8 7  
Month to date heating degree days 76 111  
Since 1 July heating degree days 86 132  
Cooling Degree Days 0 1  
Month to date cooling degree days 60 46  
Year to date cooling degree days 1652 1714  
Growing Degree Days 6 (Base 50)    
Moisture  
Dew Point 44 °F    
Average Humidity 66    
Maximum Humidity 93    
Minimum Humidity 39    
Precipitation  
Precipitation 0.00 in 0.10 in 1.83 in (1913)
Month to date precipitation 2.00 2.55  
Year to date precipitation 46.32 36.45  
Sea Level Pressure  
Sea Level Pressure 30.01 in    
Wind  
Wind Speed 2 mph (WNW)    
Max Wind Speed 9 mph    
Max Gust Speed 13 mph    
Visibility 10 miles    
Events      
T = Trace of Precipitation, MM = Missing Value Source: NWS Daily Summary

Daily Weather History Graph

Daily Weather History Graph

Search for Another Location

Airport or City:

Trip Planner

Search our weather history database for the weather conditions in past years. The results will help you decide how hot, cold, wet, or windy it might be!

Date:

Astronomy

Oct. 24, 2014 Rise Set
Actual Time 7:29 AM EDT 6:28 PM EDT
Civil Twilight 7:03 AM EDT 6:54 PM EDT
Nautical Twilight 6:33 AM EDT 7:24 PM EDT
Astronomical Twilight 6:04 AM EDT 7:53 PM EDT
Moon 8:06 AM EDT (10/24) 7:08 PM EDT (10/24)
Length of Visible Light 11h 50m
Length of Day
10h 58m
New Moon, 1% of the Moon is Illuminated
Oct 24
New Moon
Oct 30
First Quarter
Nov 6
Full
Nov 14
Last Quarter
Nov 22
New

Hourly Weather History & Observations

Time (EDT) Temp. Dew Point Humidity Pressure Visibility Wind Dir Wind Speed Gust Speed Precip Events Conditions
12:51 AM 52.0 °F 41.0 °F 66% 30.01 in 10.0 mi North 3.5 mph - N/A   Scattered Clouds
1:51 AM 51.1 °F 41.0 °F 68% 30.00 in 10.0 mi Variable 4.6 mph - N/A   Mostly Cloudy
2:51 AM 48.9 °F 41.0 °F 74% 30.00 in 10.0 mi NNE 4.6 mph - N/A   Mostly Cloudy
3:51 AM 46.9 °F 41.0 °F 80% 30.01 in 10.0 mi Calm Calm - N/A   Scattered Clouds
4:51 AM 48.0 °F 39.9 °F 74% 30.01 in 10.0 mi Calm Calm - N/A   Mostly Cloudy
5:51 AM 44.1 °F 39.9 °F 85% 30.02 in 10.0 mi Calm Calm - N/A   Mostly Cloudy
6:51 AM 44.1 °F 39.9 °F 85% 30.02 in 10.0 mi Calm Calm - N/A   Mostly Cloudy
7:51 AM 46.0 °F 41.0 °F 83% 30.03 in 10.0 mi Calm Calm - N/A   Mostly Cloudy
8:51 AM 48.0 °F 43.0 °F 83% 30.06 in 10.0 mi Calm Calm - N/A   Mostly Cloudy
9:51 AM 53.1 °F 42.1 °F 66% 30.06 in 10.0 mi North 3.5 mph - N/A   Mostly Cloudy
10:51 AM 60.1 °F 43.0 °F 53% 30.07 in 10.0 mi NE 5.8 mph - N/A   Mostly Cloudy
11:51 AM 63.0 °F 44.1 °F 50% 30.05 in 10.0 mi Calm Calm - N/A   Scattered Clouds
12:51 PM 66.9 °F 43.0 °F 42% 30.03 in 10.0 mi Calm Calm - N/A   Scattered Clouds
1:51 PM 68.0 °F 43.0 °F 40% 29.99 in 10.0 mi Calm Calm - N/A   Mostly Cloudy
2:51 PM 68.0 °F 44.1 °F 42% 29.98 in 10.0 mi WSW 5.8 mph - N/A   Mostly Cloudy
3:51 PM 70.0 °F 46.0 °F 42% 29.96 in 10.0 mi SW 6.9 mph - N/A   Mostly Cloudy
4:51 PM 68.0 °F 46.9 °F 47% 29.96 in 10.0 mi WSW 4.6 mph - N/A   Mostly Cloudy
5:51 PM 62.1 °F 48.0 °F 60% 29.97 in 10.0 mi WSW 3.5 mph - N/A   Mostly Cloudy
6:51 PM 57.9 °F 48.0 °F 70% 29.98 in 10.0 mi WSW 3.5 mph - N/A   Mostly Cloudy
7:51 PM 55.0 °F 48.0 °F 77% 29.98 in 10.0 mi Calm Calm - N/A   Mostly Cloudy
8:51 PM 53.1 °F 48.9 °F 86% 29.99 in 10.0 mi Calm Calm - N/A   Scattered Clouds
9:51 PM 50.0 °F 46.9 °F 89% 30.00 in 10.0 mi Calm Calm - N/A   Scattered Clouds
10:51 PM 48.9 °F 46.0 °F 90% 30.00 in 10.0 mi Calm Calm - N/A   Partly Cloudy
11:51 PM 46.9 °F 45.0 °F 93% 29.99 in 10.0 mi Calm Calm - N/A   Scattered Clouds